ZIYUAN 1-02C (ZY 1-02C)

Last updated on Sat Apr 13 2024 01:02:24 GMT+0100 (British Summer Time)

1 38038U 11079A 24103.55857199 .00000619 00000+0 22482-3 0 9995 2 38038 98.5019 172.7645 0007249 155.0559 341.3859 14.36688270644899
UTC large
Height (km)
Speed (km/s)
/
Latitude / Longitude
Inclination (degrees)
Orbital Period (minutes)
Azimuth
Elevation
Range (km)
Doppler Factor

Next 0 passes for location: London (51.5072 / 0.1276)

Sorry there are no passes over London.